DW7452 Sharon MA US current weather conditions

sailwx.info

Wind from 273

Air temperature 2.8° C
Dewpoint -2.5° C

Last reported at 2019-Dec-05 20:45 UTC.
Time now 2019-Dec-05 22:00 UTC

Location: N 42°07' W 071°12'.
View on Google Maps.

See reports from other nearby stations

  
Tides and Currents Weather Stations Pressure Air Temp Water Temp Dewpoint Dewpoint Depression Visibility Wind Speed Wind Dir Waves Ship Positions
date/time (UTC)wind fromknots sea level pressurealtimeterstation pressurevisibilityair tempwater tempwave heightnotes
2019-Dec-05 20:45 273 2.8
2019-Dec-05 20:30 274 2.8
2019-Dec-05 20:15 340 3.3
2019-Dec-05 20:01 309 1 gusting 5 3.3
2019-Dec-05 19:47 283 3.3
2019-Dec-05 19:32 277 3.3
2019-Dec-05 19:16 028 0 gusting 5 3.9
2019-Dec-05 19:01 288 1 gusting 6 3.9
2019-Dec-05 18:47 217 3.9
2019-Dec-05 18:31 284 4.4
2019-Dec-05 18:16 030 1 gusting 6 4.4
2019-Dec-05 18:01 281 5.0
2019-Dec-05 17:46 295 0 gusting 5 5.0
2019-Dec-05 17:31 267 5.0
2019-Dec-05 17:16 238 2 gusting 6 5.0
2019-Dec-05 17:01 297 2 gusting 8 5.0
2019-Dec-05 16:46 297 0 gusting 3 5.0
2019-Dec-05 16:30 285 1 gusting 6 4.4
2019-Dec-05 16:15 301 0 gusting 6 4.4
2019-Dec-05 16:00 351 2 gusting 9 4.4
2019-Dec-05 15:46 243 0 gusting 6 3.9
2019-Dec-05 15:31 337 0 gusting 8 3.9
2019-Dec-05 15:16 271 0 gusting 5 3.9
2019-Dec-05 15:00 240 3.3
2019-Dec-05 14:45 240 0 gusting 5 3.3
2019-Dec-05 14:30 281 2.8
2019-Dec-05 14:15 349 2.2
2019-Dec-05 14:00 249 1.7
2019-Dec-05 13:45 245 1.1
2019-Dec-05 13:30 278 0.6
2019-Dec-05 13:18 234 -0.0
2019-Dec-05 13:02 231 -1.1
2019-Dec-05 12:46 251 -1.1
2019-Dec-05 12:31 252 -1.1
2019-Dec-05 12:17 269 -1.1
2019-Dec-05 12:01 271 -1.1
2019-Dec-05 11:46 260 -1.1
2019-Dec-05 11:32 263 -1.1
2019-Dec-05 11:16 269 -1.1
2019-Dec-05 11:02 270 -0.6
2019-Dec-05 10:45 248 -1.1
2019-Dec-05 10:30 226 -1.1
2019-Dec-05 10:15 222 -1.7
2019-Dec-05 10:01 212 -2.2
2019-Dec-05 09:46 210 -2.2
2019-Dec-05 09:30 210 -1.7
2019-Dec-05 09:15 276 -1.7
2019-Dec-05 09:01 276 -1.1
2019-Dec-05 08:45 246 -1.1
2019-Dec-05 08:30 250 -1.1
2019-Dec-05 08:15 267 -1.1
2019-Dec-05 08:00 270 -1.1
2019-Dec-05 07:45 263 -1.1
2019-Dec-05 07:30 262 -1.1
2019-Dec-05 07:15 264 -1.1
2019-Dec-05 07:00 233 -1.1
2019-Dec-05 06:45 261 -1.1
2019-Dec-05 06:30 267 -1.1
2019-Dec-05 06:15 259 -1.1
2019-Dec-05 06:00 253 -1.1
2019-Dec-05 05:45 264 -1.1
2019-Dec-05 05:30 245 -1.1
2019-Dec-05 05:15 243 -1.1
2019-Dec-05 05:00 239 -0.6
2019-Dec-05 04:45 243 -0.6
2019-Dec-05 04:30 249 -0.6
2019-Dec-05 04:15 233 -0.6
2019-Dec-05 04:00 246 -0.6
2019-Dec-05 03:45 233 -0.6
2019-Dec-05 03:32 240 -0.6
2019-Dec-05 03:17 276 -0.6
2019-Dec-05 03:02 276 -0.6
2019-Dec-05 02:47 274 -0.6
2019-Dec-05 02:31 263 -0.0
2019-Dec-05 02:17 266 -0.0
2019-Dec-05 02:01 252 -0.0
2019-Dec-05 01:46 252 -0.0
2019-Dec-05 01:31 253 -0.0
2019-Dec-05 01:17 256 -0.0
2019-Dec-05 01:02 260 -0.0
2019-Dec-05 00:47 086 -0.0
2019-Dec-05 00:31 131 -0.0
2019-Dec-05 00:18 116 -0.0
2019-Dec-05 00:01 116 -0.0
2019-Dec-04 23:47 116 -0.0
2019-Dec-04 23:32 116 -0.0
2019-Dec-04 23:16 115 -0.0
2019-Dec-04 23:01 114 -0.0
2019-Dec-04 22:47 114 -0.0
2019-Dec-04 22:31 114 -0.0
2019-Dec-04 22:16 114 -0.0
2019-Dec-04 22:01 115 -0.0
2019-Dec-04 21:47 115 -0.0
2019-Dec-04 21:32 115 -0.0
2019-Dec-04 21:16 114 0.6
2019-Dec-04 21:01 115 0.6
2019-Dec-04 20:46 115 0.6
2019-Dec-04 20:31 115 1.1
2019-Dec-04 20:16 115 1.1
2019-Dec-04 20:01 115 1.1
2019-Dec-04 19:46 136 1.1
2019-Dec-04 19:32 203 1.1
2019-Dec-04 19:17 205 1.1
2019-Dec-04 19:01 120 1.1
2019-Dec-04 18:46 224 1.1
2019-Dec-04 18:16 278 1.1
2019-Dec-04 17:46 246 0.6
2019-Dec-04 17:31 212 0.6
2019-Dec-04 17:16 246 0.6
2019-Dec-04 17:01 243 0.6
2019-Dec-04 16:46 262 0.6
2019-Dec-04 16:31 240 0.6
2019-Dec-04 16:16 249 0.6
2019-Dec-04 16:03 239 0.6
2019-Dec-04 15:46 240 -0.0
2019-Dec-04 15:30 219 -0.0
2019-Dec-04 15:15 239 -0.6
2019-Dec-04 15:00 181 -0.6
2019-Dec-04 14:45 133 -1.1
2019-Dec-04 14:30 134 -2.2
2019-Dec-04 14:15 134 -2.2
2019-Dec-04 14:00 136 -2.8
2019-Dec-04 13:45 136 -2.8
2019-Dec-04 13:30 134 -3.9
2019-Dec-04 13:17 139 -4.4
2019-Dec-04 13:01 139 -5.0
2019-Dec-04 12:46 131 -5.6
2019-Dec-04 12:32 103 -5.6
2019-Dec-04 12:16 103 -6.1
2019-Dec-04 12:02 103 -6.1
2019-Dec-04 11:46 103 -6.1
2019-Dec-04 11:31 103 -6.1
2019-Dec-04 11:16 105 -6.1
2019-Dec-04 11:01 105 -6.1
2019-Dec-04 10:46 105 -6.1
2019-Dec-04 10:31 104 -6.1
2019-Dec-04 10:16 150 -5.6
2019-Dec-04 10:00 229 -5.6
2019-Dec-04 09:46 229 -5.6
2019-Dec-04 09:30 229 -5.0
2019-Dec-04 09:16 257 -5.0
2019-Dec-04 09:00 250 -5.0
2019-Dec-04 08:46 247 -5.0
2019-Dec-04 08:30 269 -5.0
2019-Dec-04 08:15 256 -5.0
2019-Dec-04 08:01 243 -4.4
2019-Dec-04 07:45 273 -5.0
2019-Dec-04 07:30 273 -5.0
2019-Dec-04 07:16 279 -5.0
2019-Dec-04 07:00 250 -5.0
2019-Dec-04 06:46 249 -5.0
2019-Dec-04 06:30 249 -4.4
2019-Dec-04 06:15 274 -5.0
2019-Dec-04 06:01 263 -5.0
2019-Dec-04 05:45 250 -5.0
2019-Dec-04 05:30 247 -5.6
2019-Dec-04 05:15 246 -5.0
2019-Dec-04 05:00 242 -5.0
2019-Dec-04 04:45 242 -5.0
2019-Dec-04 04:30 248 -5.0
2019-Dec-04 04:17 207 -4.4
2019-Dec-04 04:02 207 -4.4
2019-Dec-04 03:46 269 -3.9
2019-Dec-04 03:31 269 -3.9
2019-Dec-04 03:16 277 -3.9
2019-Dec-04 03:02 278 -3.3
2019-Dec-04 02:46 280 -3.3
2019-Dec-04 02:32 283 -3.3
2019-Dec-04 02:17 241 -3.9
2019-Dec-04 02:01 276 -3.9
2019-Dec-04 01:47 276 -3.9
2019-Dec-04 01:31 279 -3.9
2019-Dec-04 01:16 271 -3.3
2019-Dec-04 01:01 335 -3.3
2019-Dec-04 00:46 341 -3.3
2019-Dec-04 00:31 321 -3.3
2019-Dec-04 00:16 347 0 gusting 5 -2.8
2019-Dec-04 00:01 289 -2.8
2019-Dec-03 23:46 295 -2.8
2019-Dec-03 23:31 263 -2.8
2019-Dec-03 23:16 349 -2.2
2019-Dec-03 23:02 252 -2.2
2019-Dec-03 22:46 012 -2.2
2019-Dec-03 22:31 268 -2.2
2019-Dec-03 22:15 326 -2.2
2019-Dec-03 22:01 307 -2.2